Regional Weather Roundup
Issued by NWS Cleveland, OH

Home | Current Version | Previous Version | Text Only | Print | Product List | Glossary Off
Versions: 1 2 3 4 5 6 7 8 9 10 11 12 13 14 15 16 17 18 19 20 21 22 23 24 25 26 27 28 29 30 31 32 33 34 35 36 37 38 39 40 41 42 43 44 45 46 47 48 49 50

000
ASUS41 KCLE 022110
RWRCLE
OHIO REGIONAL WEATHER ROUNDUP
NATIONAL WEATHER SERVICE CLEVELAND, OH
500 PM EDT TUE SEP 02 2014

NOTE: "FAIR" INDICATES FEW OR NO CLOUDS BELOW 12,000 FEET WITH NO
SIGNIFICANT WEATHER AND/OR OBSTRUCTIONS TO VISIBILITY.

OHZ001>008-015>018-024>027-034-035-043-044-022200-
   NORTHWEST OHIO

CITY           SKY/WX    TMP DP  RH WIND       PRES   REMARKS
DEFIANCE       PTSUNNY   78  66  66 W5        29.90F
FINDLAY        PTSUNNY   76  67  73 W12       29.91S
TOLEDO EXPRESS MOSUNNY   78  67  68 W8        29.89R
TOLEDO EXEC    LGT RAIN  73  67  81 W14G23    29.89S
LIMA           CLOUDY    75  67  76 W10       29.93F
$$

OHZ009>014-019>023-028>033-038-089-022200-
   NORTHEAST OHIO

CITY           SKY/WX    TMP DP  RH WIND       PRES   REMARKS
CLE-HOPKINS    CLOUDY    73  68  84 SW9       29.91R
CLE-LAKEFRONT  CLOUDY    72  69  90 W9        29.88S
CUY CO. ARPT   CLOUDY    72  70  94 W12       29.90S
LORAIN-ELYRIA  CLOUDY    77  67  71 W14       29.90F
ASHTABULA      CLOUDY    72  65  78 W10       29.89R
AKRON-CANTON   PTSUNNY   77  64  64 W15G23    29.90F
WOOSTER        PTSUNNY   76  65  68 W12       29.92S
MANSFIELD      PTSUNNY   73  66  78 W10G20    29.93S
YOUNGSTOWN     CLOUDY    74  64  71 W13G21    29.90R
$$

OHZ042-051>053-060>062-070>072-077>081-022200-
  SOUTHWEST OHIO

CITY           SKY/WX    TMP DP  RH WIND       PRES   REMARKS
CINC-COVINGTON CLOUDY    75  70  84 NW3       29.95S
CINC-LUNKEN    LGT RAIN  73  71  93 SW5       29.94S
HAMILTON       CLOUDY    77  69  76 NW8       29.95S
DAYTON         PTSUNNY   76  70  82 SW8       29.95F
WRIGHT-PAT AFB CLOUDY    75  71  89 SW7       29.94S
DAYTON GENERAL CLOUDY    76  67  73 W7        29.94F
WILMINGTON     CLOUDY    76  66  71 W10       29.95S
$$

OHZ036-037-039>041-045>050-054>059-063>069-073>076-082>088-022200-
  CENTRAL AND SOUTHEAST OHIO

CITY           SKY/WX    TMP DP  RH WIND       PRES   REMARKS
COLUMBUS       LGT RAIN  77  66  68 W9        29.93S
OSU AIRPORT    LGT RAIN  73  68  84 SW8       29.93F
BOLTON FIELD   CLOUDY    75  68  78 W7        29.95S
RICKENBACK AFB CLOUDY    78  64  61 W9        29.93S
NEWARK         PTSUNNY   76  64  66 W8        29.93S
MARION         PTSUNNY   76  65  68 W10       29.93S
LANCASTER      CLOUDY    77  67  71 W6        29.94S
ZANESVILLE     PTSUNNY   78  66  66 W6        29.93S
NEW PHILLY     MOSUNNY   78  67  68 W8G16     29.91S
$$



USA.gov is the U.S. government's official web portal to all federal, state and local government web resources and services.